Location: *
(37.4589°N, 115.4852°W)
Time: 22:59:02
(UTC+00:00)

Daily predictions for brighter satellites

Satellite Brightness Start Highest point End
(mag) Time Altitude Azimuth Time Altitude Azimuth Time Altitude Azimuth
Cosmos 1842 3.6 12:00:34 12° S 12:03:44 57° E 12:07:17 10° NNE
Cosmos 1943 Rocket 2.1 12:02:07 15° SSW 12:06:41 83° ESE 12:12:13 10° NNE
Cosmos 1125 Rocket 3.6 12:02:56 10° S 12:08:04 74° ESE 12:13:15 10° NNE
Cosmos 1674 4.3 12:10:23 18° N 12:10:23 18° N 12:11:23 10° N
Cosmos 1939 Rocket 3.1 12:04:40 10° NNE 12:08:29 63° ESE 12:12:13 10° S
OAO 2 Rocket 3.5 12:08:16 44° WSW 12:09:41 63° S 12:14:52 10° ESE
IRAS Rocket 4.2 12:05:39 10° N 12:10:59 55° WNW 12:14:07 24° SW
ARGOS 3.6 12:09:24 10° NNE 12:14:47 62° ESE 12:20:07 10° S
Cosmos 921 Rocket 3.7 12:14:08 10° N 12:18:26 56° ENE 12:22:37 10° SSE
Cosmos 1470 3.6 12:15:26 10° N 12:18:59 48° E 12:22:33 10° SSE
SL-4 R/B 3.7 12:20:50 17° SSW 12:20:50 17° SSW 12:22:23 10° S
ATLAS 3B R/B 4.4 12:17:50 15° NW 12:19:54 17° NNW 12:24:42 10° N
Cosmos 1634 Rocket 4.2 12:13:49 10° N 12:20:03 75° E 12:26:12 10° SSE
Cosmos 1464 Rocket 4.5 12:17:08 10° NNW 12:22:35 34° W 12:27:59 10° SSW
Cosmos 1315 Rocket 4.4 12:19:22 10° SSE 12:22:59 36° E 12:26:38 10° NNE
Aureole 1 4.0 12:22:56 60° WSW 12:23:15 66° WNW 12:26:13 10° NNE
RUBIN 8/PSLV 4.4 12:24:38 10° N 12:28:52 70° WNW 12:33:03 10° SSW
CBERS-1 4.2 12:25:06 10° NNE 12:30:14 77° ESE 12:35:20 10° S
Cosmos 1766 3.3 12:27:38 10° NNW 12:31:05 42° W 12:34:31 10° SSW
Iridium 4 Rocket 3.1 12:27:02 10° S 12:31:09 74° E 12:35:19 10° N
BREEZE-M R/B 2.6 12:32:17 27° NNW 12:33:15 45° NE 12:35:58 10° ESE
CZ-2C R/B 3.8 12:30:22 10° NNW 12:32:31 17° NW 12:32:31 17° NW
Cosmos 1356 Rocket 3.4 12:30:37 10° SSW 12:34:44 61° W 12:38:51 10° N
KORONAS-FOTON 3.9 12:32:25 14° SSW 12:35:17 44° W 12:38:48 10° N
FengYun 1-2 T 4.4 12:34:38 10° NNE 12:40:10 77° ESE 12:45:44 10° S
Tsikada Rocket 4.3 12:38:15 10° SSW 12:44:06 42° WNW 12:50:04 10° N
USA 281 4.2 12:42:23 10° SSW 12:47:26 23° WSW 12:52:30 10° NW
Cosmos 1048 Rocket 4.2 12:46:04 10° NNW 12:50:56 46° WSW 12:55:46 10° S
SWARM A 4.2 12:54:34 10° N 12:58:02 69° W 13:01:29 10° S
Cosmos 1633 Rocket 3.5 12:56:25 10° NNW 13:00:24 36° W 13:04:20 10° SSW
COSMO-SKYMED 1 2.6 12:58:46 10° SSE 13:03:05 89° ESE 13:07:28 10° NNW
COSMOS 2406 3.5 12:57:34 10° NNW 13:03:19 75° ENE 13:09:03 10° SSE
Cosmos 1515 Rocket 3.7 13:01:13 10° SSW 13:05:25 51° W 13:09:41 10° N
GRACE-FO 1 4.5 13:02:23 10° N 13:05:59 84° W 13:09:34 10° S
ATLAS 5 CENTAUR R/B 2.2 13:00:48 10° NW 13:06:00 73° WSW 13:12:24 10° SSE
GRACE-FO 2 4.5 13:02:51 10° N 13:06:28 82° W 13:10:03 10° S
CENTAUR R/B 3.4 12:58:25 10° NW 13:07:04 71° WSW 13:16:22 10° SSE
CZ-3 Stage 3 3.6 13:06:00 10° WSW 13:09:39 27° S 13:19:03 10° SE
Cosmos 1300 3.7 13:07:34 10° N 13:10:54 45° E 13:14:13 10° SSE
H-2A R/B 3.6 13:08:55 10° NNW 13:12:09 17° WNW 13:15:20 10° W
Cosmos 1656 Rocket 4.0 13:07:47 10° SSW 13:13:26 76° ESE 13:19:06 10° NNE
Cosmos 1346 Rocket 3.9 13:12:13 10° NW 13:15:08 22° W 13:18:03 10° SW
Cosmos 1833 Rocket 4.2 13:12:50 10° WNW 13:15:34 14° W 13:18:17 10° SW
ARIANE 5 R/B 2.5 13:12:30 10° NNE 13:17:31 86° ESE 13:22:30 10° SSW
Cosmos 2082 Rocket 2.3 13:13:10 10° NNW 13:18:45 58° WSW 13:24:19 10° S
Cosmos 2278 Rocket 3.6 13:15:32 10° W 13:19:15 18° NW 13:23:00 10° NNW
Cosmos 2150 Rocket 4.2 13:14:38 10° SW 13:19:38 48° WNW 13:24:37 10° N
COSMOS 2455 2.9 13:14:11 10° NNW 13:20:12 78° WSW 13:26:11 10° SSE
Cosmos 1908 4.0 13:17:42 10° NNW 13:20:39 25° W 13:23:36 10° SSW
Cosmos 2180 Rocket 4.5 13:17:57 10° NNW 13:24:02 71° W 13:30:08 10° S
